Overview Statistics Trail Chart Weather Telemetry Raw packets
 

This is the latest recevied weather packets stored in our database for station/object HP1COO-13. If no packets are shown the sender has not sent any weather packets the latest 10 day(s).

<< 27 28 29 30 31 32 33 >>
Time Temp. Humidity Pressure Rain* Wind** Luminosity Snow
1788216541 27.78° C 90% 1008.3 hPa 0 mm - - -
1788215908 27.78° C 89% 1008.3 hPa 0 mm - - -
1788215275 27.78° C 90% 1008.1 hPa 0 mm - - -
1788214642 27.78° C 90% 1008.1 hPa 0 mm - - -
1788214009 27.78° C 90% 1008 hPa 0 mm - - -
1788213376 28.33° C 89% 1008.3 hPa 0 mm - - -
1788212743 27.78° C 89% 1008.3 hPa 0 mm - - -
1788212110 27.78° C 89% 1008.4 hPa 0 mm - - -
1788211477 27.78° C 89% 1008.3 hPa 0 mm - - -
1788210844 27.78° C 89% 1008.2 hPa 0 mm - - -
1788210211 27.22° C 89% 1008.3 hPa 0 mm - - -
1788209578 27.22° C 89% 1008.3 hPa 0 mm - - -
1788208312 27.22° C 89% 1008.3 hPa 0 mm - - -
1788207679 27.22° C 90% 1008.3 hPa 0 mm - - -
1788206413 27.22° C 92% 1008.6 hPa 0 mm - - -
1788205786 27.22° C 91% 1008.8 hPa 0 mm - - -
1788205147 27.22° C 93% 1008.8 hPa 0 mm - - -
1788204514 27.78° C 92% 1008.5 hPa 0 mm - - -
1788203881 27.22° C 93% 1008.9 hPa 0.25 mm - - -
1788203248 26.67° C 94% 1008.9 hPa 0.25 mm - - -
1788202615 26.67° C 95% 1009.1 hPa 0.51 mm - - -
1788201982 26.67° C 96% 1008.9 hPa 0.51 mm - - -
1788201349 26.11° C 96% 1009 hPa 0.51 mm - - -
1788200716 25.56° C 97% 1009.1 hPa 1.02 mm - - -
1788200083 25.56° C 97% 1009.6 hPa 1.52 mm - - -

* Rain latest hour (hover to see other rain measurements)
** Current wind speed in m/s (hover to see current wind gust speed)